Location: Bonnefont
(43.2498°N, 0.3448°E)
Time: 00:02:22
(UTC+00:00)

Daily predictions for brighter satellites

Satellite Brightness Start Highest point End
(mag) Time Altitude Azimuth Time Altitude Azimuth Time Altitude Azimuth
ATLAS 2AS CENTAUR R/B 4.3 03:13:15 33° ESE 03:13:15 33° ESE 03:19:40 10° NE
Cosmos 2263 Rocket 3.6 03:57:52 33° ENE 03:57:52 33° ENE 04:02:35 10° ESE
ATLAS 3B R/B 3.6 04:09:41 38° NNE 04:11:09 42° NE 04:17:38 10° ESE
NOSS 3-2 (C) 4.0 04:15:02 69° N 04:16:01 78° NE 04:24:29 10° SE
Lacrosse 5 3.1 04:21:19 38° ESE 04:21:19 38° ESE 04:25:23 10° ENE
Lacrosse 5 rocket 4.3 04:22:34 12° NNE 04:22:34 12° NNE 04:23:24 10° NE
NOSS 3-4 (A) 3.5 04:28:28 69° SE 04:28:34 69° ESE 04:34:49 10° NE
NOSS 3-4 (C) 3.5 04:28:32 68° SE 04:28:41 68° ESE 04:34:55 10° NE
CENTAUR R/B 3.2 04:26:44 46° NNW 04:29:37 76° NE 04:38:22 10° SE
Cosmos 2344 3.7 04:31:09 54° NNW 04:31:09 54° NNW 04:38:44 10° NNE
Meteor 2-17 Rocket 4.4 04:31:09 75° SE 04:31:09 75° SE 04:36:45 10° S
USA 215 4.2 04:26:36 10° E 04:32:32 39° NNE 04:34:24 32° NNW
NOSS 3-2 (A) 4.0 04:34:14 63° SW 04:34:14 63° SW 04:42:17 10° SSE
Gbstr 26 Del rocket 4.2 04:35:43 68° SSW 04:36:38 79° SE 04:44:29 10° ENE
SL-16 R/B 2.9 04:35:14 24° S 04:38:28 50° ESE 04:43:56 10° NE
Cosmos 2360 Rocket 4.5 04:36:19 10° SSE 04:40:36 22° E 04:44:52 10° NE
Cosmos 972 Rocket 4.5 04:46:58 54° S 04:46:58 54° S 04:51:01 10° S
Cosmos 1980 Rocket 3.4 04:49:07 29° N 04:49:07 29° N 04:52:05 10° NNE
BREEZE-M DEB (TANK) 4.3 04:43:48 44° WSW 04:47:38 75° NNW 04:52:44 10° ENE
Cosmos 1953 Rocket 3.8 04:55:59 68° E 04:55:59 68° E 05:00:13 10° SSE
SKYMED 2 4.0 04:54:49 10° SSE 04:59:05 61° ENE 05:00:32 38° N
Meteor 1-16 Rocket 4.2 04:53:35 10° S 04:59:29 87° E 05:05:19 10° N
USA 32 4.1 04:56:41 10° N 05:01:57 79° E 05:07:12 10° S
ATLAS 2AS CENTAUR R/B 3.0 05:00:45 44° WSW 05:03:20 65° NW 05:11:18 10° NNE
STARLINK 1020 4.4 05:06:05 41° NE 05:06:05 41° NE 05:08:42 10° NE
Cosmos 1908 3.6 05:03:24 29° SSE 05:05:12 62° E 05:09:04 10° NNE
Orbus 7S? 3.4 05:07:24 78° NNE 05:07:30 79° NE 05:13:48 10° SE
SL-8 Rocket 3.9 05:02:10 10° N 05:08:23 85° E 05:14:33 10° S
STARLINK 1034 4.3 05:09:35 43° NNE 05:09:35 43° NNE 05:12:19 10° NE
COSMOS 2455 3.6 05:10:27 34° NNW 05:10:27 34° NNW 05:15:11 10° NNE
Cosmos 1328 3.8 05:10:04 78° ESE 05:10:04 78° ESE 05:13:52 10° S
Meteor 2-10 3.9 05:09:44 10° SSW 05:15:11 69° WNW 05:20:28 10° N
CZ-2C R/B 4.4 05:10:48 10° N 05:12:00 16° NNW 05:12:00 16° NNW
Cosmos 1680 Rocket 3.4 05:14:26 49° WSW 05:15:41 64° WNW 05:20:59 10° NNE
STARLINK 1033 4.0 05:16:35 47° NNE 05:16:35 47° NNE 05:19:37 10° NE
Cosmos 2181 Rocket 3.9 05:10:57 10° S 05:17:11 80° W 05:23:34 10° N
ALOS 2.3 05:14:14 10° NNE 05:18:56 80° ESE 05:23:36 10° S
RESURS DK-1 2.8 05:16:59 15° SSW 05:20:15 63° ESE 05:24:22 10° NNE
METEOR-M 4.2 05:15:06 10° NNE 05:20:29 78° ESE 05:25:50 10° S
STARLINK 1035 4.1 05:22:14 38° NNE 05:22:14 38° NNE 05:24:53 10° NE
OE (NEXTSAT) 4.4 05:23:27 73° NE 05:23:27 73° NE 05:26:44 10° ENE
Cosmos 1371 Rocket 3.9 05:19:40 21° NNW 05:23:18 89° WSW 05:28:39 10° SSE
STARLINK 1027 4.1 05:26:25 37° N 05:26:25 37° N 05:29:10 10° NE
Cosmos 2341 Rocket 4.1 05:23:56 10° NNW 05:29:53 48° W 05:35:46 10° SSW
STARLINK 1041 4.4 05:30:29 20° SSW 05:33:03 51° SE 05:37:05 10° ENE
Okean O Rocket 2.3 05:29:20 10° NNE 05:33:43 57° E 05:38:04 10° S
Cosmos 2112 Rocket 4.1 05:31:28 24° SW 05:34:31 52° WNW 05:39:45 10° N
Cosmos 2058 Rocket 2.9 05:30:41 10° SSW 05:35:01 66° W 05:39:23 10° N
Cosmos 1703 3.4 05:36:13 49° W 05:36:16 49° W 05:40:02 10° S
STARLINK 1038 4.2 05:35:15 19° SSW 05:38:00 56° SE 05:42:04 10° ENE
CZ-3 R/B 3.8 05:27:28 19° WSW 05:38:58 34° SSW 05:45:48 10° SSE
Cosmos 2322 Rocket 2.1 05:33:44 10° SW 05:39:21 64° WNW 05:45:02 10° NNE
Cosmos 1726 Rocket 4.1 05:40:36 36° WNW 05:40:36 36° WNW 05:44:18 10° N
Cosmos 2263 Rocket 2.6 05:39:37 31° WNW 05:41:26 39° WSW 05:46:38 10° S
Meteor 1-11 4.1 05:36:06 10° NNW 05:41:42 72° W 05:47:20 10° S
STARLINK 1044 3.9 05:41:25 38° NW 05:41:47 39° NNW 05:45:25 10° NE
STARLINK 1046 4.0 05:40:03 18° SW 05:42:58 61° SE 05:47:04 10° ENE
Cosmos 2228 4.4 05:45:43 22° NW 05:45:43 22° NW 05:47:49 10° NNW
Cosmos 864 Rocket 4.4 05:38:29 10° NNW 05:44:41 68° W 05:50:53 10° S
COSMO-SKYMED 1 3.0 05:43:08 10° SSW 05:47:13 40° W 05:49:10 25° NW
CZ-4B DEB 4.1 05:42:21 10° N 05:47:53 71° WNW 05:53:21 10° SSW
STARLINK 1039 3.9 05:44:49 17° SW 05:47:55 67° SE 05:52:03 10° ENE
STARLINK 1031 4.0 05:47:26 34° NW 05:48:00 36° NNW 05:51:31 10° NE
Cosmos 1437 3.7 05:47:13 10° N 05:50:10 44° ENE 05:53:04 10° SSE
BREEZE-M DEB (TANK) 3.7 05:48:06 27° NW 05:50:13 48° N 06:01:40 10° ENE
Cosmos 1624 Rocket 4.0 05:46:09 14° NNW 05:50:31 59° WSW 05:55:36 10° S
Cosmos 1900 4.2 05:47:37 19° NW 05:51:13 82° WSW 05:56:07 10° SSE
STARLINK 1024 4.1 05:50:45 32° NW 05:51:28 35° NNW 05:54:57 10° NE
Cosmos 1844 Rocket 3.3 05:47:08 10° NNW 05:52:43 58° ENE 05:58:16 10° SE
STARLINK 1045 3.8 05:49:36 16° SW 05:52:54 73° SE 05:57:02 10° ENE
Cosmos 2218 Rocket 4.1 05:46:50 10° NNW 05:53:00 53° W 05:59:05 10° SSW
STARLINK 1029 4.2 05:54:15 25° NNW 05:54:19 25° NNW 05:56:59 10° NE
SL-08 R/B 4.5 05:51:16 10° N 05:57:44 75° W 06:04:05 10° S
STARLINK 1050 3.6 05:54:38 15° SW 05:58:00 83° SE 06:02:10 10° NE
STARLINK 1032 4.3 05:57:26 27° NW 05:58:28 32° NNW 06:01:54 10° NE
MOS 1-B 4.4 05:52:55 10° N 05:58:34 55° WNW 06:04:12 10° SW
Cosmos 1340 Rocket 3.7 05:55:34 10° S 05:59:21 50° E 06:03:08 10° NNE
Meteor 2-12 Rocket 4.4 05:55:24 10° N 06:01:31 79° W 06:07:38 10° S
Cosmos 2333 Rocket 3.9 05:56:18 10° S 06:01:31 37° ESE 06:06:45 10° NE
Lacrosse 5 rocket 3.3 05:58:13 12° NNW 06:01:33 24° NNE 06:05:08 10° ENE
ATLAS 3B R/B 3.0 05:56:58 17° NW 06:01:53 46° WSW 06:08:27 10° S
STARLINK 1011 4.3 06:00:47 25° WNW 06:01:58 31° NNW 06:05:23 10° NE
ADEOS Rocket 3.0 05:56:42 10° SSE 06:02:11 78° ENE 06:08:01 10° N
STARLINK 1055 3.6 05:59:21 14° SW 06:02:56 89° SSE 06:07:06 10° NE
Lacrosse 5 2.3 06:00:34 21° W 06:03:37 44° NW 06:08:29 10° NE
Alouette 2 Rocket 3.5 06:00:01 10° S 06:04:23 74° E 06:07:58 10° NNE
STARLINK 1036 4.4 06:04:09 23° WNW 06:05:30 30° NNW 06:08:53 10° NE
Cosmos 2056 Rocket 3.9 06:01:21 10° NNW 06:06:30 45° WSW 06:11:36 10° S
STARLINK 1022 3.5 06:04:08 12° SW 06:07:53 84° NW 06:12:04 10° NE
FALCON 9 DEB 3.5 06:07:04 24° WNW 06:08:51 50° SW 06:12:15 10° SE
FENGYUN 3A 4.1 06:07:36 10° N 06:12:34 38° WNW 06:17:32 10° SW
STARLINK 1042 3.5 06:08:53 11° WSW 06:12:51 78° NW 06:17:01 10° NE
USA 116 4.5 06:08:58 10° SSW 06:13:06 36° W 06:16:50 10° NNW
SMAP 3.6 06:09:47 10° NNE 06:14:25 65° ESE 06:19:02 10° S
USA 215 3.3 06:08:37 10° SE 06:15:10 86° SW 06:21:44 10° NW
Cosmos 2058 3.3 06:11:55 10° N 06:16:08 68° E 06:20:19 10° SSE
STARLINK 1056 3.6 06:13:44 10° WSW 06:17:52 73° NNW 06:22:01 10° NE
CENTAUR R/B 4.0 06:13:57 13° WNW 06:19:56 30° WSW 06:27:08 10° SSW
NOSS 3-4 (A) 4.4 06:15:58 15° W 06:20:01 28° NW 06:25:32 10° NNE
NOSS 3-4 (C) 4.4 06:16:01 15° W 06:20:07 29° NW 06:25:39 10° NNE
Cosmos 1300 2.9 06:18:31 10° SSW 06:22:12 47° WNW 06:25:55 10° N
STARLINK 1054 3.6 06:18:41 10° WSW 06:22:48 67° NNW 06:26:57 10° NE
SL-16 R/B 3.1 06:18:04 10° WSW 06:22:50 27° NW 06:27:38 10° N
Cosmos 2360 Rocket 2.3 06:18:36 10° SW 06:24:09 55° WNW 06:29:44 10° NNE
Cosmos 2219 Rocket 3.0 06:21:50 10° S 06:27:21 57° ESE 06:32:55 10° NNE
Cosmos 2333 4.4 06:21:43 10° SSW 06:27:30 82° ESE 06:33:19 10° NNE
STARLINK 1062 3.6 06:23:40 10° WSW 06:27:47 63° NNW 06:31:54 10° NE
Iridium 96 3.3 06:25:46 10° S 06:28:12 73° W 06:30:32 10° N
H-2A R/B 2.7 06:24:19 10° N 06:28:12 71° WNW 06:32:02 10° SSW
Cosmos-2242 4.1 06:24:03 10° SSE 06:28:17 50° E 06:32:32 10° NNE
Cosmos 2322 3.7 06:23:03 10° SSW 06:28:44 86° WNW 06:34:26 10° NNE
EXPRESS MD2 3.8 06:29:02 12° NW 06:31:03 23° N 06:32:55 10° ENE
Helios 1A Rocket 3.3 06:27:39 10° N 06:31:35 43° WNW 06:35:31 10° SW
YAOGAN 6 4.0 06:28:50 10° NNE 06:32:12 42° E 06:35:31 10° S
STARLINK 1053 3.7 06:28:45 10° WSW 06:32:50 58° NNW 06:36:56 10° NE
Cosmos 1455 3.6 06:31:14 10° SSE 06:34:53 43° E 06:38:35 10° NNE
STARLINK-29 4.1 06:32:28 12° WNW 06:35:20 35° SW 06:38:34 10° SSE
CZ-4B R/B 3.5 06:30:19 10° N 06:35:30 43° WNW 06:40:35 10° SW
STARLINK-52 4.0 06:34:47 12° WNW 06:37:48 37° SW 06:41:03 10° SSE
STARLINK 1061 3.8 06:33:46 10° WSW 06:37:50 54° NNW 06:41:55 10° NE
Cosmos 1867 4.2 06:32:31 10° NNW 06:37:55 57° NE 06:43:15 10° SE
Cosmos 1844 3.7 06:34:30 10° NNW 06:40:05 76° WSW 06:45:37 10° SSE
Cosmos 1812 Rocket 3.9 06:37:25 10° SSW 06:41:36 44° WNW 06:45:51 10° N
STARLINK 1067 3.9 06:38:46 10° WSW 06:42:48 51° NNW 06:46:52 10° NE
Envisat 3.3 06:39:24 10° NNE 06:44:31 77° ESE 06:49:36 10° S
CZ-4 R/B 3.5 06:40:42 10° NNE 06:44:33 34° E 06:48:21 10° SSE
CORIOLIS 4.2 06:39:31 10° NNE 06:44:55 87° WNW 06:50:17 10° SSW
STARLINK 1058 4.0 06:43:44 10° WSW 06:47:45 48° NNW 06:51:47 10° NE
Cosmos 1452 Rocket 3.7 06:43:34 10° NNW 06:48:40 52° WSW 06:53:43 10° S
CZ-2C R/B 3.8 06:44:54 10° SSE 06:49:28 85° ENE 06:53:59 10° NNW
